Regional Weather Roundup
Issued by NWS Cleveland, OH

Home | Current Version | Previous Version | Text Only | Print | Product List | Glossary On
Versions: 1 2 3 4 5 6 7 8 9 10 11 12 13 14 15 16 17 18 19 20 21 22 23 24 25 26 27 28 29 30 31 32 33 34 35 36 37 38 39 40 41 42 43 44 45 46 47 48 49 50
000
ASUS41 KCLE 251002
RWRCLE
OHIO REGIONAL WEATHER ROUNDUP
NATIONAL WEATHER SERVICE CLEVELAND, OH
500 AM EST SAT FEB 25 2017

NOTE: "FAIR" INDICATES FEW OR NO CLOUDS BELOW 12,000 FEET WITH NO
SIGNIFICANT WEATHER AND/OR OBSTRUCTIONS TO VISIBILITY.

OHZ001>008-015>018-024>027-034-035-043-044-251100-
   NORTHWEST OHIO

CITY           SKY/WX    TMP DP  RH WIND       PRES   REMARKS
DEFIANCE       CLOUDY    40  35  83 SW13G18   29.56S
FINDLAY        CLOUDY    42  34  73 SW9       29.55F
TOLEDO EXPRESS PTCLDY    40  35  83 SW8       29.54S
TOLEDO EXEC    CLEAR     42  37  82 SW8       29.55S
LIMA           PTCLDY    41  35  79 SW16      29.58S
$$

OHZ009>014-019>023-028>033-038-089-251100-
   NORTHEAST OHIO

CITY           SKY/WX    TMP DP  RH WIND       PRES   REMARKS
CLE-HOPKINS    CLOUDY    49  41  74 W17G24    29.57R
CLE-LAKEFRONT  CLOUDY    42  39  89 W13       29.55R
CUY CO. ARPT   NOT AVBL
LORAIN-ELYRIA  CLOUDY    44  36  73 W14       29.58R
ASHTABULA      LGT RAIN  49  47  93 W7G23     29.54R
AKRON-CANTON   LGT RAIN  51  45  79 W9        29.56R
WOOSTER        LGT RAIN  47  42  83 W12       29.58R
MANSFIELD      CLOUDY    42  34  73 W9        29.58S
YOUNGSTOWN     RAIN      54  52  93 W17G23    29.53S FOG
$$

OHZ042-051>053-060>062-070>072-077>081-251100-
  SOUTHWEST OHIO

CITY           SKY/WX    TMP DP  RH WIND       PRES   REMARKS
CINC-COVINGTON PTCLDY    42  32  67 W8        29.67R
CINC-LUNKEN    CLOUDY    44  33  65 W10       29.69R
HAMILTON       PTCLDY    42  33  70 W6        29.69R
DAYTON         PTCLDY    38  33  82 W10       29.65R
WRIGHT-PAT AFB CLOUDY    42  35  74 W12       29.65R
DAYTON GENERAL CLOUDY    42  33  70 W9        29.65R
WILMINGTON     CLOUDY    44  35  70 W13       29.65R
$$

OHZ036-037-039>041-045>050-054>059-063>069-073>076-082>088-251100-
  CENTRAL AND SOUTHEAST OHIO

CITY           SKY/WX    TMP DP  RH WIND       PRES   REMARKS
COLUMBUS       CLOUDY    46  37  71 NW12      29.62S
OSU AIRPORT    CLOUDY    43  37  79 W5        29.62R
BOLTON FIELD   NOT AVBL
RICKENBACK AFB CLOUDY    45  40  80 NW8       29.61F
NEWARK         CLOUDY    47  38  71 NW10      29.60R
MARION         CLOUDY    43  36  76 SW6       29.61R
LANCASTER      CLOUDY    48  40  73 NW7       29.62R
ZANESVILLE     LGT RAIN  51  47  86 W7        29.58S
NEW PHILLY     NOT AVBL
$$



USA.gov is the U.S. government's official web portal to all federal, state and local government web resources and services.